Regional Weather Roundup
Issued by NWS

Home | Current Version | Previous Version | Graphics & Text | Print | Product List | Glossary On
Versions: 1 2 3 4 5 6 7 8 9 10 11 12 13 14 15 16 17 18 19 20 21 22 23 24 25 26 27 28 29 30 31 32 33 34 35 36 37 38 39 40 41 42 43 44 45 46 47 48 49 50
000
ASUS43 KMKX 241100
RWRWI

WISCONSIN REGIONAL WEATHER ROUNDUP
NATIONAL WEATHER SERVICE MILWAUKEE/SULLIVAN WI
500 AM CST FRI FEB 24 2017

NOTE: "FAIR" INDICATES FEW OR NO CLOUDS BELOW 12,000 FEET WITH NO
SIGNIFICANT WEATHER AND/OR OBSTRUCTIONS TO VISIBILITY.

WIZ001-002-006>008-014>016-023>028-241200-
NORTHWEST WISCONSIN

CITY           SKY/WX    TMP DP  RH WIND       PRES   REMARKS
SUPERIOR ARPT  CLOUDY    23  14  68 NE10G17   29.97S WCI  13
ASHLAND        CLOUDY    25  17  72 NE18      29.94R WCI  11
HAYWARD        CLOUDY    27  19  72 NE13G25   29.87R WCI  16
SIREN          CLOUDY    25  17  70 NE10      29.90S WCI  15
CUMBERLAND     CLOUDY    27  18  69 N9G17     29.85R WCI  17
RICE LAKE      CLOUDY    28  20  71 N17G23    29.86R WCI  16
CHETEK         CLOUDY    29  20  69 N10       29.85R WCI  20
LADYSMITH      CLOUDY    29  22  73 N16G22    29.80F WCI  18
EAU CLAIRE     HVY SNOW  28  26  92 N9        29.81R VSB 1/4 WCI  19
MENOMONIE      LGT SNOW  28  27  96 N8        29.84R VSB 1   WCI  20
NEW RICHMOND   CLOUDY    28  18  68 N15       29.86S WCI  16
OSCEOLA        CLOUDY    27  18  69 N8        29.91S WCI  19
$$

WIZ003>005-009-010-017-018-241200-
NORTH CENTRAL WISCONSIN

CITY           SKY/WX    TMP DP  RH WIND       PRES   REMARKS
MANITOWISH WTR CLOUDY    24  24 100 N10       29.82R WCI  13
ARBOR VITAE    CLOUDY    27  24  89 N9          N/A  WCI  17
WOODRUFF       CLOUDY    27  24  89 N9          N/A  WCI  17
RHINELANDER    LGT SNOW  27  25  92 NE8       29.77R FOG     WCI  19
EAGLE RIVER    CLOUDY    26  21  82 NE10G23   29.79R WCI  16
LAND O LAKES   CLOUDY    24  23  96 N14G21    29.81F FOG     WCI  12
PHILLIPS       CLOUDY    26  21  83 N15G23    29.76F WCI  13
TOMAHAWK       LGT SNOW  26  24  89 N6        29.78R WCI  20
MEDFORD        LGT SNOW  26  24  93 NE17      29.68F VSB 1   WCI  13
MERRILL        NOT AVBL
$$

WIZ029-030-035-036-043>047-241200-
CENTRAL WISCONSIN

CITY           SKY/WX    TMP DP  RH WIND       PRES   REMARKS
WAUSAU         LGT SNOW  27  24  89 NE14G24   29.67F VSB 3/4 WCI  16
MOSINEE        SNOW      28  28 100 NE18G26   29.67F VSB 1/2 WCI  16
MARSHFIELD     LGT SNOW  28  24  85 NE10      29.73R FOG     WCI  19
STEVENS POINT  LGT SNOW  26  26 100 NE14G21   29.67F WCI  15
WAUPACA        LGT SNOW  31  28  89 NE12G22   29.69F WCI  21
WAUTOMA        FLURRIES  29  26  89 NE23G31   29.62F WCI  15
WISC RAPIDS    TSTM      29  26  89 NE12      29.74R FOG     WCI  19
CAMP DOUGLAS   LGT SNOW  30  27  86 NE10      29.71R FOG     WCI  21
$$

WIZ011>013-019>022-031-037>040-048>050-241200-
NORTHEAST WISCONSIN

CITY           SKY/WX    TMP DP  RH WIND       PRES   REMARKS
ANTIGO         CLOUDY    26  23  88 NE18G25   29.73R WCI  13
SHAWANO        LGT SNOW  30  27  89 NE16G26   29.73F WCI  19
OCONTO         CLOUDY    28  27  93 NE13G23   29.76F WCI  18
STURGEON BAY   LGT SNOW  29  28  96 NE20G26   29.74F FOG     WCI  16
GREEN BAY      LGT SNOW  30  30 100 NE28G41   29.68F VSB 1   WCI  15
MANITOWOC      MIX PCPN  32  28  86 NE15G31   29.69F FOG     WCI  22
APPLETON       CLOUDY    30  28  93 NE25G33   29.64F WCI  16
CLINTONVILLE   LGT SNOW  30  28  93 NE14G24   29.71F WCI  20
OSHKOSH        CLOUDY    31  27  85 NE18G29   29.64F WCI  19
$$

WIZ032>034-041-042-053>061-241200-
SOUTHWEST WISCONSIN

CITY           SKY/WX    TMP DP  RH WIND       PRES   REMARKS
LA CROSSE      LGT SNOW  32  31  96 N10       29.71S VSB 1   WCI  24
SPARTA         TSTM      31  29  94 N8        29.74R WCI  23
VIROQUA        CLOUDY    30  29  98 NE14      29.65F WCI  19
BOSCOBEL       MIX PCPN  33  31  92 NE7       29.63F FOG     WCI  27
PRAIRIE DU CHI MIX PCPN  32  32  99 N6        29.62F WCI  26
PLATTEVILLE    CLOUDY    33  33 100 NE20      29.54R WCI  21
$$

WIZ056-057-062-063-064-067-068-241200-
SOUTH CENTRAL WISCONSIN

CITY           SKY/WX    TMP DP  RH WIND       PRES   REMARKS
REEDSBURG      LGT RAIN  30  29  96 NE10      29.66R WCI  21
BARABOO/DELLS  TSTM      30  28  93 NE12G22   29.62R WCI  21
LONE ROCK      NOT AVBL
MINERAL POINT  LGT RAIN  34  34 100 NE7       29.56R WCI  28
MADISON        FRZ RAIN  33  30  88 NE13G29   29.58F WCI  24
MIDDLETON      CLOUDY    33  33 100 E13G18    29.57F WCI  24
WATERTOWN      CLOUDY    33  33 100 NE18G26   29.58F WCI  22
MONROE         CLOUDY    32  32 100 NE10G25   29.54R WCI  24
JANESVILLE     DRIZZLE   36  36 100 NE15      29.54F WCI  26
$$

WIZ051-052-058>065-066-070>072-241200-
SOUTHEAST WISCONSIN

CITY           SKY/WX    TMP DP  RH WIND       PRES   REMARKS
MILWAUKEE      TSTM      37  34  89 NE21G26   29.58F FOG     WCI  26
WAUKESHA       LGT RAIN  32  32 100 NE18G28   29.58F WCI  20
MILWAUKEE/TIMM LGT RAIN  34  32  93 NE15G25   29.61F WCI  24
RACINE         LGT SNOW  37  34  89 NE20G26   29.59F FOG     WCI  27
KENOSHA        LGT RAIN  37  35  92 NE17G30   29.56S FOG     WCI  27
FOND DU LAC    FRZ RAIN  33  28  81 NE24G31   29.64F WCI  20
SHEBOYGAN      FRZ RAIN  32  32 100 NE29G40   29.65F WCI  18
WEST BEND      LGT RAIN  32  32 100 NE20G26   29.61F WCI  20
JUNEAU         MIX PCPN  32  30  93 NE13G18   29.60F WCI  22
$$

LSZ147-162-241200-
LAKE SUPERIOR

STATION/POSITION TIME  TEMP    WIND        PRES    WAVE
                       AIR SEA DIR/SP/G            HT/PER
                 (UTC) (F)     (DEG/KT/KT) (MB)    (FT/S)
DEVILS ISLAND    1000   24      40/ 23/ 26 1016.0F
PORT WING        1030   26      40/ 21/ 26 1014.6S
SAXON HARBOR     1030   28      60/ 25/ 28 1012.5S
$$

LMZ867-665-643>646-241200-
LAKE MICHIGAN

STATION/POSITION TIME  TEMP    WIND        PRES    WAVE
                       AIR SEA DIR/SP/G            HT/PER
                 (UTC) (F)     (DEG/KT/KT) (MB)    (FT/S)
CHAMBERS ISLAND  0840   32      10/ 17/ 19 1010.8S
NORTHPORT PIER   1040   29      40/ 13/ 18 1009.8F
SISTER BAY       1035   29     360/ 12/ 19   N/A
KEWAUNEE LAKESHO 1030   31      50/ 24/ 32 1007.0F
SHEBOYGAN LAKESH 1000   33      30/ 29/ 34 1005.5F
PORT WASHINGTON  1040   35      40/ 22/ 31 1004.4F
MILWAUKEE LAKESH 1030   36      20/ 21/ 26   N/A
KENOSHA   LAKESH 1000   37      30/ 19/ 26 1001.7
$$

TC  - TEMPERATURE IN CELSIUS
VSB - VISIBILITY IN STATUTE MILES
WCI - WIND CHILL INDEX
HX  - HEAT INDEX





USA.gov is the U.S. government's official web portal to all federal, state and local government web resources and services.